Weather History for Roseau, MN

Change the Weather History Date:

Sunday, October 7, 2012

  Actual Average Record
Temperature  
Mean Temperature 38 °F -  
Max Temperature 44 °F 55 °F 86 °F (2003)
Min Temperature 33 °F 32 °F 15 °F (1990)
Degree Days  
Heating Degree Days 26    
Moisture  
Dew Point 30 °F    
Average Humidity 72    
Maximum Humidity 87    
Minimum Humidity 65    
Precipitation  
Precipitation 0.00 in - - ()
Sea Level Pressure  
Sea Level Pressure 29.86 in    
Wind  
Wind Speed 9 mph (SSW)    
Max Wind Speed 13 mph    
Max Gust Speed -    
Visibility 10 miles    
Events      
Averages and records for this station are not official NWS values.
T = Trace of Precipitation, MM = Missing Value Source: NWS Daily Summary

Daily Weather History Graph

Daily Weather History Graph

Search for Another Location

Airport:

Trip Planner

Search our weather history database for the weather conditions in past years. The results will help you decide how hot, cold, wet, or windy it might be!

Date:

Astronomy

Oct. 07, 2012 Rise Set
Actual Time 7:31 AM CDT 6:48 PM CDT
Civil Twilight 7:00 AM CDT 7:19 PM CDT
Nautical Twilight 6:23 AM CDT 7:56 PM CDT
Astronomical Twilight 5:46 AM CDT 8:32 PM CDT
Moon 11:40 PM CDT (10/7) 2:30 PM CDT (10/7)
Length of Visible Light 12h 19m
Length of Day
11h 16m
Waning Gibbous, 56% of the Moon is Illuminated
Oct 7
Waning Gibbous
Oct 8
Last Quarter
Oct 15
New
Oct 21
First Quarter
Oct 29
Full

Hourly Weather History & Observations

Time (CDT) Temp. Windchill Dew Point Humidity Pressure Visibility Wind Dir Wind Speed Gust Speed Precip Events Conditions
12:01 AM 33.8 °F 25.8 °F 26.6 °F 75% 30.05 in 10.0 mi SSW 10.4 mph - N/A   Clear
12:21 AM 33.8 °F 25.8 °F 26.6 °F 75% 30.04 in 10.0 mi SSW 10.4 mph - N/A   Clear
12:41 AM 33.8 °F 26.4 °F 26.6 °F 75% 30.04 in 10.0 mi SSW 9.2 mph - N/A   Clear
1:01 AM 33.8 °F 25.8 °F 26.6 °F 75% 30.03 in 10.0 mi SSW 10.4 mph - N/A   Clear
1:21 AM 33.8 °F 25.8 °F 26.6 °F 75% 30.02 in 10.0 mi SSW 10.4 mph - N/A   Clear
1:41 AM 33.8 °F 25.8 °F 26.6 °F 75% 30.01 in 10.0 mi SSW 10.4 mph - N/A   Clear
1:54 AM 33.8 °F 25.3 °F 24.8 °F 70% 30.01 in 10.0 mi SSW 11.5 mph - N/A   Clear
2:14 AM 33.8 °F 25.8 °F 24.8 °F 70% 30.00 in 10.0 mi SSW 10.4 mph - N/A   Clear
2:35 AM 33.8 °F 25.8 °F 24.8 °F 70% 29.99 in 10.0 mi SSW 10.4 mph - N/A   Clear
2:54 AM 33.8 °F 26.4 °F 24.8 °F 70% 29.99 in 10.0 mi SSW 9.2 mph - N/A   Clear
3:14 AM 33.8 °F 25.8 °F 24.8 °F 70% 29.98 in 10.0 mi SSW 10.4 mph - N/A   Clear
3:35 AM 33.8 °F 25.8 °F 24.8 °F 70% 29.97 in 10.0 mi SSW 10.4 mph - N/A   Clear
3:54 AM 33.8 °F 25.8 °F 24.8 °F 70% 29.96 in 10.0 mi SSW 10.4 mph - N/A   Clear
4:14 AM 33.8 °F 25.8 °F 24.8 °F 70% 29.96 in 10.0 mi SSW 10.4 mph - N/A   Scattered Clouds
4:35 AM 33.8 °F 25.8 °F 24.8 °F 70% 29.95 in 10.0 mi SSW 10.4 mph - N/A   Scattered Clouds
4:54 AM 33.8 °F 25.3 °F 24.8 °F 70% 29.94 in 10.0 mi SSW 11.5 mph - N/A   Clear
5:14 AM 33.8 °F 24.8 °F 24.8 °F 70% 29.93 in 10.0 mi SSW 12.7 mph - N/A   Clear
5:35 AM 33.8 °F 25.3 °F 24.8 °F 70% 29.92 in 10.0 mi SSW 11.5 mph - N/A   Clear
5:54 AM 35.6 °F 28.0 °F 26.6 °F 70% 29.91 in 10.0 mi SSW 10.4 mph - N/A   Clear
6:14 AM 35.6 °F 28.0 °F 24.8 °F 65% 29.90 in 10.0 mi SSW 10.4 mph - N/A   Clear
6:34 AM 35.6 °F 28.0 °F 24.8 °F 65% 29.90 in 10.0 mi SSW 10.4 mph - N/A   Scattered Clouds
6:54 AM 35.6 °F 27.5 °F 24.8 °F 65% 29.89 in 10.0 mi SSW 11.5 mph - N/A   Scattered Clouds
7:14 AM 35.6 °F 28.0 °F 24.8 °F 65% 29.88 in 10.0 mi SSW 10.4 mph - N/A   Mostly Cloudy
7:34 AM 35.6 °F 28.0 °F 26.6 °F 70% 29.88 in 10.0 mi SSW 10.4 mph - N/A   Scattered Clouds
7:54 AM 35.6 °F 28.6 °F 26.6 °F 70% 29.87 in 10.0 mi SSW 9.2 mph - N/A   Clear
8:14 AM 35.6 °F 27.5 °F 26.6 °F 70% 29.87 in 10.0 mi SSW 11.5 mph - N/A   Clear
8:34 AM 35.6 °F 28.0 °F 26.6 °F 70% 29.87 in 10.0 mi SSW 10.4 mph - N/A   Clear
8:54 AM 35.6 °F 28.0 °F 26.6 °F 70% 29.87 in 10.0 mi SSW 10.4 mph - N/A   Scattered Clouds
9:14 AM 35.6 °F 28.0 °F 26.6 °F 70% 29.87 in 10.0 mi SSW 10.4 mph - N/A   Scattered Clouds
9:34 AM 35.6 °F 28.6 °F 26.6 °F 70% 29.87 in 10.0 mi SSW 9.2 mph - N/A   Scattered Clouds
9:55 AM 35.6 °F 27.5 °F 26.6 °F 70% 29.86 in 10.0 mi SSW 11.5 mph - N/A   Scattered Clouds
10:14 AM 37.4 °F 29.8 °F 28.4 °F 70% 29.87 in 10.0 mi SSW 11.5 mph - N/A   Clear
10:34 AM 37.4 °F 29.8 °F 28.4 °F 70% 29.86 in 10.0 mi SSW 11.5 mph - N/A   Clear
10:55 AM 37.4 °F 29.3 °F 28.4 °F 70% 29.86 in 10.0 mi SSW 12.7 mph - N/A   Scattered Clouds
11:14 AM 39.2 °F 31.6 °F 28.4 °F 65% 29.85 in 10.0 mi SSW 12.7 mph - N/A   Clear
11:34 AM 39.2 °F 32.0 °F 30.2 °F 70% 29.85 in 10.0 mi SW 11.5 mph - N/A   Clear
12:14 PM 39.2 °F 32.0 °F 30.2 °F 70% 29.84 in 10.0 mi SW 11.5 mph - N/A   Clear
12:34 PM 41.0 °F 34.3 °F 30.2 °F 65% 29.84 in 10.0 mi SW 11.5 mph - N/A   Scattered Clouds
12:55 PM 41.0 °F 34.7 °F 30.2 °F 65% 29.84 in 10.0 mi SW 10.4 mph - N/A   Scattered Clouds
1:14 PM 41.0 °F 35.2 °F 30.2 °F 65% 29.84 in 10.0 mi SW 9.2 mph - N/A   Scattered Clouds
1:34 PM 41.0 °F 35.8 °F 32.0 °F 70% 29.83 in 10.0 mi SW 8.1 mph - N/A   Scattered Clouds
1:54 PM 42.8 °F 38.6 °F 32.0 °F 66% 29.83 in 10.0 mi SW 6.9 mph - N/A   Scattered Clouds
2:14 PM 42.8 °F 38.0 °F 33.8 °F 70% 29.82 in 10.0 mi SW 8.1 mph - N/A   Scattered Clouds
2:35 PM 42.8 °F 37.5 °F 32.0 °F 66% 29.82 in 10.0 mi SW 9.2 mph - N/A   Scattered Clouds
2:54 PM 44.6 °F 39.2 °F 33.8 °F 66% 29.81 in 10.0 mi SW 10.4 mph - N/A   Scattered Clouds
3:14 PM 44.6 °F 39.7 °F 33.8 °F 66% 29.81 in 10.0 mi SW 9.2 mph - N/A   Clear
3:34 PM 44.6 °F 41.4 °F 33.8 °F 66% 29.81 in 10.0 mi SW 5.8 mph - N/A   Clear
3:54 PM 44.6 °F 40.2 °F 33.8 °F 66% 29.81 in 10.0 mi SW 8.1 mph - N/A   Clear
4:14 PM 44.6 °F 40.2 °F 33.8 °F 66% 29.80 in 10.0 mi SSW 8.1 mph - N/A   Clear
4:34 PM 44.6 °F 40.2 °F 33.8 °F 66% 29.79 in 10.0 mi SSW 8.1 mph - N/A   Scattered Clouds
4:54 PM 44.6 °F 43.1 °F 35.6 °F 71% 29.79 in 10.0 mi SW 3.5 mph - N/A   Scattered Clouds
5:14 PM 44.6 °F - 35.6 °F 71% 29.79 in 10.0 mi Calm Calm - N/A   Scattered Clouds
5:34 PM 44.6 °F - 33.8 °F 66% 29.79 in 10.0 mi Calm Calm - N/A   Scattered Clouds
5:54 PM 44.6 °F - 35.6 °F 71% 29.78 in 10.0 mi Calm Calm - N/A   Mostly Cloudy
6:14 PM 44.6 °F - 37.4 °F 76% 29.78 in 10.0 mi Calm Calm - N/A   Mostly Cloudy
6:34 PM 42.8 °F - 35.6 °F 76% 29.78 in 10.0 mi Calm Calm - N/A   Mostly Cloudy
6:54 PM 42.8 °F - 35.6 °F 76% 29.78 in 10.0 mi Calm Calm - N/A   Mostly Cloudy
7:14 PM 41.0 °F 39.0 °F 35.6 °F 81% 29.78 in 10.0 mi NE 3.5 mph - N/A   Mostly Cloudy
7:54 PM 39.2 °F - 33.8 °F 81% 29.77 in 10.0 mi Calm Calm - N/A   Mostly Cloudy
8:15 PM 39.2 °F - 33.8 °F 81% 29.77 in 10.0 mi Calm Calm - N/A   Mostly Cloudy
8:34 PM 37.4 °F 34.9 °F 33.8 °F 87% 29.76 in 10.0 mi ENE 3.5 mph - N/A   Mostly Cloudy
8:54 PM 39.2 °F - 33.8 °F 81% 29.76 in 10.0 mi Calm Calm - N/A   Mostly Cloudy
9:14 PM 39.2 °F - 33.8 °F 81% 29.76 in 10.0 mi Calm Calm - N/A   Scattered Clouds
9:34 PM 39.2 °F - 33.8 °F 81% 29.75 in 10.0 mi Calm Calm - N/A   Scattered Clouds
9:55 PM 37.4 °F 34.9 °F 33.8 °F 87% 29.75 in 10.0 mi SE 3.5 mph - N/A   Scattered Clouds
10:14 PM 39.2 °F 37.0 °F 33.8 °F 81% 29.74 in 10.0 mi SE 3.5 mph - N/A   Mostly Cloudy
10:34 PM 37.4 °F - 33.8 °F 87% 29.73 in 10.0 mi Calm Calm - N/A   Mostly Cloudy
10:55 PM 39.2 °F - 33.8 °F 81% 29.73 in 10.0 mi Calm Calm - N/A   Scattered Clouds
11:14 PM 37.4 °F - 33.8 °F 87% 29.72 in 10.0 mi Calm Calm - N/A   Clear
11:34 PM 35.6 °F - 32.0 °F 87% 29.72 in 10.0 mi Calm Calm - N/A   Clear
11:54 PM 35.6 °F - 30.2 °F 81% 29.71 in 10.0 mi Calm Calm - N/A   Clear